DW3400 Weather Reports


time (UTC)temp
C
wind
direction
speed
KPH
gust
KPH
rain 1hr
cm
rain 24hr
cm
rain mn
cm
humidity
%
barometer
mb
20210723164503 20 276 0.0 1.6 0.00 0.00 0.00 68 1020.2
20210723164003 20 283 0.0 3.2 0.00 0.00 0.00 67 1020.2
20210723162502 20 342 1.6 3.2 0.00 0.00 0.00 68 1020.2
20210723162003 20 275 1.6 3.2 0.00 0.00 0.00 67 1020.2
20210723161502 20 294 0.0 3.2 0.00 0.00 0.00 67 1020.2
20210723161002 20 314 1.6 1.6 0.00 0.00 0.00 67 1020.2
20210723160502 20 288 1.6 4.8 0.00 0.00 0.00 67 1020.2
20210723160002 20 341 1.6 4.8 0.00 0.00 0.00 66 1020.2
20210723155504 21 327 1.6 4.8 0.00 0.00 0.00 66 1020.2
20210723154504 21 281 1.6 4.8 0.00 0.00 0.00 64 1020.2
20210723154002 21 120 1.6 3.2 0.00 0.00 0.00 63 1020.2
20210723153003 22 173 0.0 1.6 0.00 0.00 0.00 63 1020.2
20210723151502 22 257 1.6 3.2 0.00 0.00 0.00 63 1020.2
20210723150503 21 231 1.6 4.8 0.00 0.00 0.00 65 1020.2
20210723150002 21 214 3.2 4.8 0.00 0.00 0.00 64 1020.2
20210723145502 21 298 3.2 4.8 0.00 0.00 0.00 63 1020.2
20210723145003 21 272 0.0 1.6 0.00 0.00 0.00 65 1020.2
20210723144502 21 283 0.0 4.8 0.00 0.00 0.00 66 1020.2
20210723144003 21 268 1.6 4.8 0.00 0.00 0.00 66 1020.2
20210723143002 20 283 3.2 4.8 0.00 0.00 0.00 66 1020.2
20210723141502 21 300 3.2 4.8 0.00 0.00 0.00 65 1020.2
20210723141002 21 306 1.6 4.8 0.00 0.00 0.00 65 1020.2
20210723140502 21 267 4.8 8.0 0.00 0.00 0.00 64 1020.2
20210723140002 21 173 6.4 11.3 0.00 0.00 0.00 64 1020.2
20210723135003 22 198 4.8 12.9 0.00 0.00 0.00 62 1020.2
20210723134002 21 204 9.7 14.5 0.00 0.00 0.00 65 1020.2
20210723133502 21 178 3.2 9.7 0.00 0.00 0.00 64 1020.2
20210723133002 21 186 3.2 8.0 0.00 0.00 0.00 63 1020.2
20210723132003 21 257 1.6 4.8 0.00 0.00 0.00 63 1020.2
20210723131002 21 210 0.0 1.6 0.00 0.00 0.00 63 1020.2
20210723130502 21 195 1.6 1.6 0.00 0.00 0.00 64 1020.2
20210723130002 20 148 1.6 1.6 0.00 0.00 0.00 65 1020.2
20210723125502 20 276 1.6 3.2 0.00 0.00 0.00 65 1020.2
20210723125002 20 289 1.6 4.8 0.00 0.00 0.00 65 1020.2
20210723124002 21 304 0.0 1.6 0.00 0.00 0.00 66 1020.2
20210723123502 20 293 1.6 4.8 0.00 0.00 0.00 66 1020.2
20210723122503 21 285 3.2 11.3 0.00 0.00 0.00 65 1020.2
20210723121002 21 317 1.6 3.2 0.00 0.00 0.00 63 1020.2
20210723120502 21 51 1.6 3.2 0.00 0.00 0.00 65 1020.2
20210723120002 21 295 1.6 4.8 0.00 0.00 0.00 65 1020.2
20210723115502 21 247 0.0 4.8 0.00 0.00 0.00 64 1020.2
20210723115002 21 284 1.6 3.2 0.00 0.00 0.00 63 1020.2
20210723114503 21 267 1.6 4.8 0.00 0.00 0.00 65 1020.2
20210723114003 21 46 1.6 3.2 0.00 0.00 0.00 63 1020.2
20210723113503 21 285 1.6 4.8 0.00 0.00 0.00 63 1020.2
20210723112502 20 343 4.8 8.0 0.00 0.00 0.00 65 1020.2
20210723112003 20 304 3.2 9.7 0.00 0.00 0.00 65 1020.2
20210723111002 21 303 3.2 8.0 0.00 0.00 0.00 65 1020.2
20210723110503 21 345 3.2 9.7 0.00 0.00 0.00 67 1020.2
20210723110003 20 326 3.2 9.7 0.00 0.00 0.00 68 1020.2
20210723105002 20 321 4.8 8.0 0.00 0.00 0.00 68 1020.2
20210723104502 20 286 4.8 8.0 0.00 0.00 0.00 68 1020.2
20210723103503 20 295 4.8 8.0 0.00 0.00 0.00 68 1020.2
20210723102003 20 300 1.6 4.8 0.00 0.00 0.00 68 1020.2
20210723101503 20 290 3.2 4.8 0.00 0.00 0.00 68 1020.2
20210723101003 20 295 1.6 8.0 0.00 0.00 0.00 68 1020.2
20210723100503 20 269 1.6 4.8 0.00 0.00 0.00 68 1020.2
20210723100002 20 344 3.2 8.0 0.00 0.00 0.00 68 1020.2
20210723094502 20 324 1.6 4.8 0.00 0.00 0.00 68 1020.2
20210723094002 20 10 1.6 4.8 0.00 0.00 0.00 69 1020.2
20210723093002 20 300 3.2 4.8 0.00 0.00 0.00 68 1020.2
20210723092502 20 296 3.2 9.7 0.00 0.00 0.00 68 1020.2
20210723092002 20 286 4.8 12.9 0.00 0.00 0.00 69 1020.2
20210723091502 20 317 6.4 12.9 0.00 0.00 0.00 67 1020.2
20210723091002 20 307 3.2 9.7 0.00 0.00 0.00 68 1020.2
20210723090502 20 314 3.2 12.9 0.00 0.00 0.00 68 1020.2
20210723090003 20 337 4.8 9.7 0.00 0.00 0.00 69 1020.2
20210723085502 20 326 3.2 8.0 0.00 0.00 0.00 70 1020.2
20210723085002 19 297 8.0 11.3 0.00 0.00 0.00 70 1020.2
20210723084502 20 295 3.2 12.9 0.00 0.00 0.00 70 1020.2
20210723084002 19 303 8.0 11.3 0.00 0.00 0.00 71 1020.2
20210723083502 20 287 3.2 11.3 0.00 0.00 0.00 71 1020.2
20210723082503 19 294 4.8 9.7 0.00 0.00 0.00 71 1020.2
20210723081503 18 299 4.8 12.9 0.00 0.00 0.00 72 1020.2
20210723080502 18 312 3.2 9.7 0.00 0.00 0.00 74 1020.2
20210723075503 18 303 1.6 4.8 0.00 0.00 0.00 75 1020.2
20210723075002 18 285 3.2 11.3 0.00 0.00 0.00 75 1020.2
20210723074502 18 296 4.8 11.3 0.00 0.00 0.00 73 1020.2
20210723074002 18 307 3.2 9.7 0.00 0.00 0.00 74 1020.2
20210723073502 18 313 4.8 8.0 0.00 0.00 0.00 75 1020.2
20210723073003 18 307 4.8 8.0 0.00 0.00 0.00 74 1020.2
20210723072503 18 289 6.4 11.3 0.00 0.00 0.00 74 1020.2
20210723072003 18 317 3.2 8.0 0.00 0.00 0.00 77 1020.2
20210723071503 18 308 4.8 9.7 0.00 0.00 0.00 78 1020.2
20210723070502 17 314 4.8 11.3 0.00 0.00 0.00 79 1020.2
20210723065002 17 286 4.8 9.7 0.00 0.00 0.00 79 1020.2
20210723064503 17 301 4.8 9.7 0.00 0.00 0.00 79 1020.2
20210723064003 17 308 4.8 9.7 0.00 0.00 0.00 80 1020.2
20210723062502 17 296 3.2 8.0 0.00 0.00 0.00 81 1020.2
20210723062003 16 295 3.2 4.8 0.00 0.00 0.00 82 1020.2
20210723061502 16 298 4.8 8.0 0.00 0.00 0.00 82 1020.2
20210723060003 16 289 1.6 4.8 0.00 0.00 0.00 85 1020.2
20210723055504 16 289 1.6 4.8 0.00 0.00 0.00 84 1020.2
20210723055002 16 295 3.2 4.8 0.00 0.00 0.00 85 1020.2
20210723054502 16 320 3.2 4.8 0.00 0.00 0.00 85 1020.2
20210723053002 16 287 3.2 4.8 0.00 0.00 0.00 86 1020.2
20210723052003 15 290 1.6 4.8 0.00 0.00 0.00 87 1020.2
20210723051504 15 302 1.6 4.8 0.00 0.00 0.00 87 1020.2
20210723051002 15 290 1.6 4.8 0.00 0.00 0.00 87 1020.2
20210723050003 15 287 1.6 8.0 0.00 0.00 0.00 88 1020.2
20210723045503 15 296 3.2 4.8 0.00 0.00 0.00 88 1020.2
20210723044502 14 299 4.8 9.7 0.00 0.00 0.00 89 1020.2
20210723044002 14 283 3.2 4.8 0.00 0.00 0.00 89 1020.2
20210723043502 14 302 3.2 8.0 0.00 0.00 0.00 89 1020.2
20210723042503 14 295 1.6 4.8 0.00 0.00 0.00 90 1020.2
20210723042003 14 276 3.2 8.0 0.00 0.00 0.00 90 1020.2
20210723041002 13 291 0.0 1.6 0.00 0.00 0.00 90 1020.2
20210723040502 13 288 1.6 3.2 0.00 0.00 0.00 90 1020.2
20210723040003 13 307 1.6 4.8 0.00 0.00 0.00 90 1020.2
20210723035503 13 291 1.6 4.8 0.00 0.00 0.00 90 1020.2
20210723035003 13 289 1.6 3.2 0.00 0.00 0.00 90 1020.2
20210723034003 13 312 1.6 3.2 0.00 0.00 0.00 90 1020.2
20210723033003 13 303 1.6 4.8 0.00 0.00 0.00 89 1020.2
20210723032502 14 284 1.6 3.2 0.00 0.00 0.00 89 1020.2
20210723032003 14 289 1.6 4.8 0.00 0.00 0.00 89 1020.2
20210723031502 14 285 1.6 3.2 0.00 0.00 0.00 89 1020.2
20210723031003 14 286 1.6 1.6 0.00 0.00 0.00 89 1020.2
20210723030502 14 305 1.6 4.8 0.00 0.00 0.00 89 1020.2
20210723030003 14 260 1.6 4.8 0.00 0.00 0.00 89 1020.2
20210723025503 14 294 1.6 3.2 0.00 0.00 0.00 89 1020.2
20210723025002 14 305 1.6 4.8 0.00 0.00 0.00 89 1020.2
20210723024502 14 292 1.6 4.8 0.00 0.00 0.00 89 1020.2
20210723024002 14 291 1.6 4.8 0.00 0.00 0.00 89 1020.2
20210723023502 14 293 1.6 4.8 0.00 0.00 0.00 88 1020.2
20210723022503 15 289 1.6 4.8 0.00 0.00 0.00 88 1020.2
20210723022003 15 297 1.6 4.8 0.00 0.00 0.00 88 1020.2
20210723021502 15 298 1.6 4.8 0.00 0.00 0.00 88 1020.2
20210723020503 15 291 1.6 4.8 0.00 0.00 0.00 88 1020.2
20210723020002 15 289 1.6 4.8 0.00 0.00 0.00 88 1020.2
20210723015502 15 298 3.2 4.8 0.00 0.00 0.00 88 1020.2
20210723015004 15 298 3.2 8.0 0.00 0.00 0.00 88 1020.2
20210723014504 15 294 1.6 4.8 0.00 0.00 0.00 88 1020.2
20210723014003 15 295 1.6 8.0 0.00 0.00 0.00 88 1020.2
20210723013503 15 298 3.2 8.0 0.00 0.00 0.00 88 1020.2
20210723011502 15 290 1.6 4.8 0.00 0.00 0.00 87 1020.2
20210723011003 15 291 1.6 4.8 0.00 0.00 0.00 87 1020.2
20210723005503 15 294 3.2 4.8 0.00 0.00 0.00 87 1020.2
20210723005003 15 290 3.2 8.0 0.00 0.00 0.00 87 1020.2
20210723004503 15 293 3.2 4.8 0.00 0.00 0.00 87 1020.2
20210723004003 15 294 3.2 4.8 0.00 0.00 0.00 87 1020.2
20210723003503 15 310 3.2 4.8 0.00 0.00 0.00 87 1020.2
20210723003003 15 299 1.6 3.2 0.00 0.00 0.00 87 1020.2
20210723002003 15 258 1.6 4.8 0.00 0.00 0.00 87 1020.2
20210723001003 15 294 1.6 4.8 0.00 0.00 0.00 87 1020.2
20210723000002 15 297 1.6 4.8 0.00 0.00 0.00 87 1020.2
20210722235503 15 289 1.6 4.8 0.00 0.00 0.00 87 1020.2
20210722235003 15 281 1.6 4.8 0.00 0.00 0.00 86 1020.2
20210722234503 15 296 1.6 4.8 0.00 0.00 0.00 86 1020.2
20210722234003 15 295 3.2 4.8 0.00 0.00 0.00 85 1020.2
20210722233503 15 292 3.2 4.8 0.00 0.00 0.00 85 1020.2
20210722233003 15 278 1.6 4.8 0.00 0.00 0.00 85 1020.2
20210722232503 16 304 1.6 4.8 0.00 0.00 0.00 85 1020.2
20210722232003 16 310 3.2 4.8 0.00 0.00 0.00 84 1020.2
20210722231503 16 274 3.2 4.8 0.00 0.00 0.00 84 1020.2
20210722231003 16 303 3.2 8.0 0.00 0.00 0.00 84 1020.2
20210722230503 16 280 1.6 4.8 0.00 0.00 0.00 83 1020.2
20210722225502 16 300 1.6 4.8 0.00 0.00 0.00 83 1020.2
20210722225003 16 232 1.6 3.2 0.00 0.00 0.00 82 1020.2
20210722224504 16 208 0.0 4.8 0.00 0.00 0.00 82 1020.2
20210722224003 16 289 1.6 3.2 0.00 0.00 0.00 82 1020.2
20210722223503 16 255 0.0 4.8 0.00 0.00 0.00 82 1020.2
20210722223002 16 240 0.0 4.8 0.00 0.00 0.00 82 1020.2
20210722222503 16 249 1.6 4.8 0.00 0.00 0.00 81 1020.2
20210722222002 16 226 1.6 4.8 0.00 0.00 0.00 81 1020.2
20210722221003 16 223 1.6 4.8 0.00 0.00 0.00 81 1020.2
20210722220503 16 236 1.6 4.8 0.00 0.00 0.00 81 1020.2
20210722220003 16 217 1.6 3.2 0.00 0.00 0.00 81 1020.2
20210722215502 16 242 3.2 4.8 0.00 0.00 0.00 81 1020.2
20210722215003 16 232 1.6 4.8 0.00 0.00 0.00 81 1020.2
20210722214502 16 250 1.6 4.8 0.00 0.00 0.00 81 1020.2
20210722214003 16 209 1.6 3.2 0.00 0.00 0.00 81 1020.2
20210722213503 17 213 1.6 4.8 0.00 0.00 0.00 80 1020.2
20210722213004 17 230 1.6 4.8 0.00 0.00 0.00 80 1020.2
20210722212002 17 251 1.6 4.8 0.00 0.00 0.00 80 1020.2
20210722211502 17 281 3.2 4.8 0.00 0.00 0.00 80 1020.2
20210722210502 17 252 1.6 3.2 0.00 0.00 0.00 80 1020.2
20210722210002 17 219 1.6 3.2 0.00 0.00 0.00 80 1020.2
20210722205504 17 214 1.6 3.2 0.00 0.00 0.00 80 1020.2
20210722205003 17 246 0.0 1.6 0.00 0.00 0.00 80 1020.2
20210722204503 17 218 0.0 1.6 0.00 0.00 0.00 80 1020.2
20210722203503 17 140 0.0 1.6 0.00 0.00 0.00 80 1020.2
20210722203003 17 234 0.0 1.6 0.00 0.00 0.00 79 1020.2
20210722202503 17 241 0.0 4.8 0.00 0.00 0.00 80 1020.2
20210722202002 17 251 1.6 4.8 0.00 0.00 0.00 80 1020.2
20210722201503 17 265 0.0 4.8 0.00 0.00 0.00 80 1020.2
20210722201003 17 214 1.6 3.2 0.00 0.00 0.00 80 1020.2
20210722200503 17 267 0.0 1.6 0.00 0.00 0.00 79 1020.2
20210722195503 17 241 0.0 1.6 0.00 0.00 0.00 79 1020.2
20210722195003 17 123 0.0 1.6 0.00 0.00 0.00 79 1020.2
20210722193003 17 171 1.6 4.8 0.00 0.00 0.00 78 1020.2
20210722192502 17 234 1.6 4.8 0.00 0.00 0.00 77 1020.2
20210722191004 17 233 3.2 8.0 0.00 0.00 0.00 77 1020.2
20210722190502 18 261 0.0 4.8 0.00 0.00 0.00 77 1020.2
20210722185003 18 227 3.2 4.8 0.00 0.00 0.00 76 1020.2
20210722184003 18 258 3.2 11.3 0.00 0.00 0.00 76 1020.2
20210722183003 18 264 4.8 8.0 0.00 0.00 0.00 75 1020.2
20210722182003 18 229 4.8 8.0 0.00 0.00 0.00 75 1020.2
20210722181503 18 232 4.8 12.9 0.00 0.00 0.00 75 1020.2
20210722181003 18 237 3.2 9.7 0.00 0.00 0.00 74 1020.2
20210722180502 18 252 8.0 14.5 0.00 0.00 0.00 74 1020.2
20210722180003 18 257 4.8 12.9 0.00 0.00 0.00 74 1020.2
20210722175502 18 235 3.2 11.3 0.00 0.00 0.00 74 1020.2
20210722175002 18 245 3.2 8.0 0.00 0.00 0.00 73 1020.2
20210722174003 18 267 4.8 14.5 0.00 0.00 0.00 72 1020.2
20210722173503 18 247 6.4 16.1 0.00 0.00 0.00 71 1020.2
20210722173003 18 139 1.6 4.8 0.00 0.00 0.00 71 1020.2
20210722172503 18 237 3.2 8.0 0.00 0.00 0.00 71 1020.2
20210722172003 18 356 3.2 9.7 0.00 0.00 0.00 71 1020.2
20210722171503 18 252 3.2 11.3 0.00 0.00 0.00 70 1020.2
20210722171003 18 227 4.8 14.5 0.00 0.00 0.00 70 1020.2
20210722170503 18 233 4.8 9.7 0.00 0.00 0.00 69 1020.2
20210722170003 18 257 3.2 4.8 0.00 0.00 0.00 69 1020.2